Simultaneous Nadir Overpasses (SNOs) Predictions

Prediction of SNOs between NOAA-19 and METOP-C Satellite Orbit:

Table of predicted SNOs for the next 14.0 days since TLE Epoch: 1/13/2024
Index Date (NOAA-19) Time (NOAA-19) Lat,Lon (NOAA-19) SZA (NOAA-19 ) Date (METOP-C) Time (METOP-C) Lat,Lon (METOP-C) SZA (METOP-C ) Distance(km) Time Diff (sec)
1 01/13/2024 05:06:53 -80.65, -47.02 76.83 01/13/2024 05:08:01 -80.64, -47.05 76.82 0.67 68
2 01/13/2024 05:57:46 80.66, 120.52 103.20 01/13/2024 05:58:42 80.66, 120.45 103.21 1.36 56
3 01/13/2024 06:48:50 -80.67, -71.99 76.79 01/13/2024 06:49:21 -80.68, -71.85 76.76 2.70 31
4 01/13/2024 07:39:44 80.67, 95.20 103.20 01/13/2024 07:40:03 80.67, 95.31 103.22 1.97 19
5 01/13/2024 08:30:47 -80.69, -96.96 76.74 01/13/2024 08:30:42 -80.69, -96.99 76.75 0.61 5
6 01/13/2024 09:21:40 80.70, 70.59 103.29 01/13/2024 09:21:23 80.70, 70.51 103.28 1.42 17
7 01/13/2024 10:12:45 -80.70,-122.28 76.73 01/13/2024 10:12:03 -80.70,-122.14 76.73 2.67 42
8 01/13/2024 11:03:38 80.71, 45.27 103.30 01/13/2024 11:02:44 80.71, 45.37 103.29 1.89 54
9 01/24/2024 21:32:37 -80.61, 66.10 79.35 01/24/2024 21:33:37 -80.63, 66.27 79.31 3.25 60
10 01/24/2024 22:23:30 80.63,-126.30 100.68 01/24/2024 22:24:18 80.62,-126.41 100.68 2.06 48
11 01/24/2024 23:14:34 -80.64, 41.12 79.31 01/24/2024 23:14:58 -80.64, 41.12 79.31 0.05 24
12 01/25/2024 00:05:28 80.64,-151.63 100.68 01/25/2024 00:05:39 80.64,-151.56 100.69 1.26 11
13 01/25/2024 00:56:31 -80.66, 16.13 79.27 01/25/2024 00:56:19 -80.65, 15.96 79.30 3.23 12
14 01/25/2024 01:47:24 80.67,-176.26 100.76 01/25/2024 01:46:59 80.67,-176.38 100.74 2.08 25
15 01/25/2024 02:38:28 -80.68, -8.85 79.24 01/25/2024 02:37:39 -80.68, -8.85 79.25 0.36 49



Historial Predications of SNOs between NOAA-19 and METOP-C
